When you browse on this site, cookies collect data to enhance your experience and personalize the content and advertising you see.
Visit our Privacy Policy to learn more. By continuing to use the site, you agree to this use of cookies and data.
  • Em Portugal
  • Lista de países
  • Para 7 dias
  • Temperatura da água
  • Mapa do tempo
  • Widgets de tempo
  • user-avatar
    Iniciar Sessão

    Previsão horária em Velikaya Raevka

    Hoje, 28 Janeiro, Terça-feira

    Tempo Temperatura Precipitação Vento Pressão Humidade
    00:00 -2°C° 0 mm 2 m/s 740 mmHg 81%
    01:00 -2°C° 0 mm 2 m/s 739 mmHg 81%
    02:00 -2°C° 0 mm 2 m/s 739 mmHg 80%
    03:00 -2°C° 0 mm 2 m/s 739 mmHg 82%
    04:00 -1°C° 0 mm 2 m/s 738 mmHg 84%
    05:00 -1°C° 0 mm 2 m/s 738 mmHg 86%
    06:00 -1°C° 0 mm 2 m/s 738 mmHg 85%
    07:00 -1°C° 0 mm 2 m/s 738 mmHg 84%
    08:00 -1°C° 0 mm 3 m/s 738 mmHg 83%
    09:00 0°C° 0 mm 3 m/s 737 mmHg 82%
    10:00 0°C° 0 mm 3 m/s 737 mmHg 82%
    11:00 +1°C° 0 mm 3 m/s 737 mmHg 81%
    12:00 +1°C° 0 mm 3 m/s 736 mmHg 80%
    13:00 +2°C° 0 mm 3 m/s 736 mmHg 79%
    14:00 +2°C° 0 mm 3 m/s 736 mmHg 78%
    15:00 +1°C° 0 mm 3 m/s 735 mmHg 81%
    16:00 +1°C° 0 mm 3 m/s 735 mmHg 85%
    17:00 -1°C° 0 mm 4 m/s 734 mmHg 88%
    18:00 -1°C° 0 mm 4 m/s 734 mmHg 89%
    19:00 -1°C° 0 mm 4 m/s 734 mmHg 90%
    20:00 -1°C° 0 mm 4 m/s 734 mmHg 91%
    21:00 -1°C° 0 mm 4 m/s 733 mmHg 92%
    22:00 -1°C° 0 mm 4 m/s 733 mmHg 92%
    23:00 -1°C° 0 mm 4 m/s 732 mmHg 93%

    Amanhã, 29 Janeiro, Quarta-feira

    Tempo Temperatura Precipitação Vento Pressão Humidade
    00:00 -1°C° 0.1 mm 4 m/s 732 mmHg 94%
    01:00 -1°C° 0.1 mm 4 m/s 732 mmHg 95%
    02:00 -1°C° 0.1 mm 4 m/s 731 mmHg 96%
    03:00 -1°C° 0 mm 4 m/s 730 mmHg 96%
    04:00 -1°C° 0 mm 4 m/s 730 mmHg 95%
    05:00 -1°C° 0 mm 4 m/s 729 mmHg 95%
    06:00 -1°C° 0.2 mm 4 m/s 729 mmHg 96%
    07:00 -1°C° 0.2 mm 4 m/s 728 mmHg 96%
    08:00 -2°C° 0.2 mm 4 m/s 728 mmHg 96%
    09:00 -2°C° 0.6 mm 4 m/s 728 mmHg 97%
    10:00 0°C° 0.6 mm 3 m/s 728 mmHg 97%
    11:00 0°C° 0.6 mm 3 m/s 727 mmHg 98%
    12:00 -1°C° 1 mm 3 m/s 727 mmHg 98%
    13:00 -1°C° 1 mm 2 m/s 727 mmHg 98%
    14:00 -1°C° 1 mm 2 m/s 727 mmHg 98%
    15:00 -1°C° 0.9 mm 3 m/s 727 mmHg 98%
    16:00 -2°C° 0.9 mm 4 m/s 727 mmHg 97%
    17:00 -2°C° 0.9 mm 5 m/s 727 mmHg 97%
    18:00 -2°C° 0.4 mm 4 m/s 727 mmHg 94%
    19:00 -2°C° 0.4 mm 4 m/s 727 mmHg 91%
    20:00 -2°C° 0.4 mm 4 m/s 727 mmHg 88%
    21:00 -2°C° 0 mm 4 m/s 727 mmHg 88%
    22:00 -3°C° 0 mm 4 m/s 727 mmHg 89%
    23:00 -3°C° 0 mm 4 m/s 727 mmHg 89%

    Depois de amanhã, 30 Janeiro, Quinta-feira

    Tempo Temperatura Precipitação Vento Pressão Humidade
    00:00 -3°C° 0 mm 4 m/s 727 mmHg 90%
    01:00 -3°C° 0 mm 4 m/s 728 mmHg 91%
    02:00 -3°C° 0 mm 4 m/s 728 mmHg 92%
    03:00 -3°C° 0 mm 4 m/s 728 mmHg 91%
    04:00 -3°C° 0 mm 4 m/s 728 mmHg 91%
    05:00 -4°C° 0 mm 5 m/s 728 mmHg 91%
    06:00 -4°C° 0 mm 6 m/s 728 mmHg 90%
    07:00 -4°C° 0 mm 6 m/s 728 mmHg 88%
    08:00 -4°C° 0 mm 7 m/s 729 mmHg 87%
    09:00 -5°C° 0.1 mm 8 m/s 729 mmHg 87%
    10:00 -4°C° 0.1 mm 8 m/s 729 mmHg 88%
    11:00 -4°C° 0.1 mm 9 m/s 729 mmHg 88%
    12:00 -4°C° 0 mm 8 m/s 729 mmHg 86%
    13:00 -2°C° 0 mm 8 m/s 730 mmHg 85%
    14:00 -2°C° 0 mm 8 m/s 730 mmHg 83%
    15:00 -2°C° 0 mm 7 m/s 730 mmHg 84%
    16:00 -2°C° 0 mm 7 m/s 731 mmHg 85%
    17:00 -2°C° 0 mm 6 m/s 731 mmHg 86%
    18:00 -2°C° 0 mm 6 m/s 732 mmHg 87%
    19:00 -2°C° 0 mm 6 m/s 732 mmHg 88%
    20:00 -3°C° 0 mm 6 m/s 733 mmHg 90%
    21:00 -2°C° 0.1 mm 5 m/s 733 mmHg 90%
    22:00 -2°C° 0.1 mm 5 m/s 733 mmHg 90%
    23:00 -2°C° 0.1 mm 5 m/s 733 mmHg 90%

    31 Janeiro, Sexta-feira

    Tempo Temperatura Precipitação Vento Pressão Humidade
    00:00 -4°C° 0 mm 5 m/s 733 mmHg 91%
    01:00 -3°C° 0 mm 4 m/s 733 mmHg 93%
    02:00 -4°C° 0 mm 3 m/s 732 mmHg 94%
    03:00 -2°C° 0.2 mm 3 m/s 732 mmHg 95%
    04:00 -2°C° 0.2 mm 4 m/s 732 mmHg 96%
    05:00 -1°C° 0.2 mm 4 m/s 731 mmHg 97%
    06:00 -1°C° 0.3 mm 4 m/s 731 mmHg 97%
    07:00 -1°C° 0.3 mm 4 m/s 731 mmHg 97%
    08:00 0°C° 0.3 mm 5 m/s 730 mmHg 97%
    09:00 0°C° 0.3 mm 5 m/s 730 mmHg 98%
    10:00 0°C° 0.3 mm 5 m/s 730 mmHg 98%
    11:00 0°C° 0.3 mm 5 m/s 730 mmHg 98%
    12:00 0°C° 0.1 mm 4 m/s 729 mmHg 98%
    13:00 0°C° 0.1 mm 4 m/s 729 mmHg 98%
    14:00 0°C° 0.1 mm 4 m/s 729 mmHg 98%
    15:00 0°C° 0.2 mm 4 m/s 728 mmHg 98%
    16:00 0°C° 0.2 mm 4 m/s 728 mmHg 98%
    17:00 -1°C° 0.2 mm 4 m/s 728 mmHg 97%
    18:00 0°C° 0.1 mm 3 m/s 728 mmHg 98%
    19:00 0°C° 0.1 mm 3 m/s 728 mmHg 98%
    20:00 0°C° 0.1 mm 3 m/s 729 mmHg 98%
    21:00 +1°C° 0.1 mm 2 m/s 729 mmHg 98%
    22:00 +1°C° 0.1 mm 2 m/s 729 mmHg 98%
    23:00 +1°C° 0.1 mm 2 m/s 730 mmHg 98%

    1 Fevereiro, Sábado

    Tempo Temperatura Precipitação Vento Pressão Humidade
    00:00 +1°C° 0.1 mm 3 m/s 730 mmHg 97%
    01:00 +1°C° 0.1 mm 3 m/s 731 mmHg 95%
    02:00 +1°C° 0.1 mm 3 m/s 731 mmHg 94%
    03:00 0°C° 0 mm 4 m/s 732 mmHg 94%
    04:00 0°C° 0 mm 4 m/s 732 mmHg 95%
    05:00 -1°C° 0 mm 4 m/s 732 mmHg 95%
    06:00 0°C° 0 mm 4 m/s 732 mmHg 95%
    07:00 0°C° 0 mm 4 m/s 733 mmHg 95%
    08:00 0°C° 0 mm 4 m/s 733 mmHg 95%
    09:00 0°C° 0 mm 4 m/s 733 mmHg 93%
    10:00 0°C° 0 mm 4 m/s 733 mmHg 91%
    11:00 0°C° 0 mm 5 m/s 734 mmHg 90%
    12:00 +1°C° 0 mm 5 m/s 734 mmHg 88%
    13:00 +1°C° 0 mm 4 m/s 734 mmHg 85%
    14:00 +3°C° 0 mm 4 m/s 734 mmHg 83%
    15:00 +3°C° 0.2 mm 4 m/s 733 mmHg 86%
    16:00 +3°C° 0.2 mm 4 m/s 733 mmHg 88%
    17:00 +1°C° 0.2 mm 4 m/s 733 mmHg 91%
    18:00 +3°C° 0.3 mm 4 m/s 733 mmHg 93%
    19:00 +3°C° 0.3 mm 4 m/s 732 mmHg 95%
    20:00 +3°C° 0.3 mm 4 m/s 732 mmHg 96%
    21:00 +4°C° 0.4 mm 4 m/s 732 mmHg 97%
    22:00 +4°C° 0.4 mm 4 m/s 731 mmHg 97%
    23:00 +4°C° 0.4 mm 4 m/s 731 mmHg 98%

    2 Fevereiro, Domingo

    Tempo Temperatura Precipitação Vento Pressão Humidade
    00:00 +4°C° 0.1 mm 4 m/s 731 mmHg 98%
    01:00 +4°C° 0.1 mm 4 m/s 731 mmHg 98%
    02:00 +4°C° 0.1 mm 4 m/s 730 mmHg 98%
    03:00 +4°C° 0.1 mm 4 m/s 730 mmHg 97%
    04:00 +5°C° 0.1 mm 3 m/s 730 mmHg 97%
    05:00 +5°C° 0.1 mm 3 m/s 730 mmHg 97%
    06:00 +5°C° 0.3 mm 4 m/s 730 mmHg 96%
    07:00 +5°C° 0.3 mm 4 m/s 731 mmHg 94%
    08:00 +5°C° 0.3 mm 4 m/s 731 mmHg 93%
    09:00 +5°C° 0 mm 5 m/s 732 mmHg 88%
    10:00 +4°C° 0 mm 6 m/s 732 mmHg 83%
    11:00 +4°C° 0 mm 7 m/s 733 mmHg 78%
    12:00 +3°C° 0 mm 7 m/s 734 mmHg 76%
    13:00 +3°C° 0 mm 7 m/s 734 mmHg 74%
    14:00 +3°C° 0 mm 7 m/s 735 mmHg 72%
    15:00 +2°C° 0 mm 6 m/s 735 mmHg 74%
    16:00 +1°C° 0 mm 5 m/s 735 mmHg 77%
    17:00 +1°C° 0 mm 4 m/s 735 mmHg 79%
    18:00 0°C° 0 mm 4 m/s 735 mmHg 81%
    19:00 0°C° 0 mm 5 m/s 735 mmHg 82%
    20:00 0°C° 0 mm 5 m/s 734 mmHg 84%
    21:00 0°C° 0 mm 5 m/s 734 mmHg 84%
    22:00 0°C° 0 mm 5 m/s 734 mmHg 85%
    23:00 0°C° 0 mm 5 m/s 734 mmHg 85%
    Mostrar mais